Lawrenceville, IL

2:48 AM CST on December 04, 2016 (GMT -0600)
Lawrenceville-Vincennes International

Weather History for KLWV - April, 2014

Change the Weather History Date:

Tuesday, April 22, 2014

  Actual Average Record
Temperature  
Mean Temperature 60 °F 58 °F  
Max Temperature 70 °F 69 °F 84 °F (2001)
Min Temperature 50 °F 48 °F 34 °F (1993)
Degree Days  
Heating Degree Days 5 8  
Month to date heating degree days 222 246  
Since 1 July heating degree days 5407 4543  
Cooling Degree Days 0 1  
Month to date cooling degree days 4 16  
Year to date cooling degree days 4 18  
Growing Degree Days 12 (Base 50)    
Moisture  
Dew Point 40 °F    
Average Humidity 58    
Maximum Humidity 90    
Minimum Humidity 26    
Precipitation  
Precipitation 0.02 in 0.14 in 2.61 in (1984)
Month to date precipitation 5.86 2.63  
Year to date precipitation 9.66 10.45  
Sea Level Pressure  
Sea Level Pressure 29.91 in    
Wind  
Wind Speed 12 mph (NNW)    
Max Wind Speed 22 mph    
Max Gust Speed 27 mph    
Visibility 7 miles    
Events Rain    
T = Trace of Precipitation, MM = Missing Value Source: NWS Daily Summary

Daily Weather History Graph

Daily Weather History Graph

Search for Another Location

Airport or City:

Trip Planner

Search our weather history database for the weather conditions in past years. The results will help you decide how hot, cold, wet, or windy it might be!

Date:

Astronomy

Apr. 22, 2014 Rise Set
Actual Time 6:04 AM CDT 7:34 PM CDT
Civil Twilight 5:36 AM CDT 8:02 PM CDT
Nautical Twilight 5:02 AM CDT 8:35 PM CDT
Astronomical Twilight 4:27 AM CDT 9:11 PM CDT
Moon 1:48 AM CDT (4/22) 12:39 PM CDT (4/22)
Length of Visible Light 14h 25m
Length of Day
13h 29m
Last Quarter, 46% of the Moon is Illuminated
Apr 22
Last Quarter
Apr 29
New
May 6
First Quarter
May 14
Full
May 21
Last Quarter

Hourly Weather History & Observations

Time (CDT) Temp. Dew Point Humidity Pressure Visibility Wind Dir Wind Speed Gust Speed Precip Events Conditions
12:53 AM 60.1 °F 57.9 °F 93% 29.87 in 3.0 mi West 3.5 mph - N/A   Overcast
1:53 AM 60.1 °F - N/A% 29.86 in 4.0 mi Calm Calm - 0.02 in Rain Light Rain
2:25 AM 59.0 °F - N/A% 29.84 in 2.5 mi Calm Calm - 0.00 in   Overcast
2:53 AM 59.0 °F - N/A% 29.84 in 2.5 mi Calm Calm - 0.00 in   Overcast
3:53 AM 59.0 °F - N/A% 29.84 in 3.0 mi WNW 4.6 mph - N/A   Scattered Clouds
4:07 AM 57.9 °F - N/A% 29.85 in 2.5 mi NW 4.6 mph - N/A   Mostly Cloudy
4:53 AM 57.9 °F - N/A% 29.84 in 2.5 mi West 4.6 mph - N/A   Clear
5:06 AM 57.9 °F - N/A% 29.85 in 3.0 mi West 4.6 mph - N/A   Clear
5:23 AM 57.0 °F - N/A% 29.85 in 2.5 mi WNW 6.9 mph - N/A   Clear
5:53 AM 57.0 °F - N/A% 29.85 in 2.5 mi WNW 5.8 mph - N/A   Clear
6:18 AM 55.9 °F - N/A% 29.86 in 1.8 mi NW 6.9 mph - N/A   Clear
6:32 AM 57.0 °F - N/A% 29.87 in 2.0 mi NW 8.1 mph - N/A   Clear
6:53 AM 57.9 °F - N/A% 29.88 in 3.0 mi NW 12.7 mph - N/A   Clear
7:53 AM 59.0 °F - N/A% 29.91 in 8.0 mi NNW 15.0 mph - N/A   Clear
8:53 AM 60.1 °F 51.1 °F 72% 29.92 in 7.0 mi North 16.1 mph - N/A   Partly Cloudy
9:53 AM 62.1 °F 50.0 °F 65% 29.94 in 7.0 mi North 13.8 mph - N/A   Clear
10:53 AM 63.0 °F 46.0 °F 54% 29.96 in 10.0 mi NNW 17.3 mph - N/A   Clear
11:53 AM 63.0 °F 45.0 °F 52% 29.96 in 10.0 mi North 16.1 mph 20.7 mph N/A   Clear
12:53 PM 64.9 °F 44.1 °F 47% 29.94 in 10.0 mi NW 18.4 mph - N/A   Clear
1:53 PM 64.9 °F 42.1 °F 43% 29.94 in 10.0 mi NNW 15.0 mph - N/A   Clear
2:53 PM 68.0 °F 39.0 °F 35% 29.94 in 10.0 mi NNW 15.0 mph - N/A   Clear
3:53 PM 69.1 °F 35.1 °F 29% 29.92 in 10.0 mi NNW 20.7 mph 26.5 mph N/A   Clear
4:53 PM 69.1 °F 33.1 °F 26% 29.92 in 10.0 mi North 16.1 mph 23.0 mph N/A   Clear
5:53 PM 68.0 °F 35.1 °F 30% 29.92 in 10.0 mi NNW 16.1 mph - N/A   Clear
6:53 PM 64.9 °F 30.0 °F 27% 29.94 in 10.0 mi North 19.6 mph - N/A   Clear
7:53 PM 60.1 °F 32.0 °F 35% 29.94 in 10.0 mi North 8.1 mph - N/A   Clear
8:53 PM 57.0 °F 35.1 °F 44% 29.97 in 10.0 mi NNW 6.9 mph - N/A   Clear
9:53 PM 55.0 °F 35.1 °F 47% 29.99 in 10.0 mi North 9.2 mph - N/A   Clear
10:53 PM 54.0 °F 36.0 °F 51% 29.99 in 10.0 mi North 8.1 mph - N/A   Clear
11:53 PM 51.1 °F 36.0 °F 56% 29.99 in 10.0 mi NNE 6.9 mph - N/A   Clear